Flag for U.S.A. Weather past 2 weeks in Dayton, Ohio, U.S.A.

Now
25 °F

Light snow. Ice fog.


Feels Like: 25 °F
Forecast: 22 / 37 °F
Wind: 1 mph from North

Location: Dayton / Wright-Patterson Air Force Base

Current Time: Mar 1, 2015 at 4:28:05 AM

Latest Report: Mar 1, 2015 at 3:58 AM


Visibility: 1 mi

Pressure: 30.41 "Hg

Humidity: 92%

Dew point: 23 °F

Location of DaytonLocation

Historic Weather in Dayton — Graph

°F

Dayton temperature yesterday

Maximum temperature yesterday: 25 °F (at 3:58 PM)
Minimum temperature yesterday: 2 °F (at 5:58 AM)
Average temperature yesterday: 16 °F

Past Weeks' High & Low Weather Summary

 TemperatureHumidityPressure
High32 °F (Feb 21, 4:01 PM)100% (Feb 21, 2:03 PM)30.80 "Hg (Feb 21, 2:03 PM)
Low-13 °F (Feb 24, 6:58 AM)39% (Feb 15, 3:58 PM)29.71 "Hg (Feb 14, 10:58 AM)
Average13 °F65%30.25 "Hg
* Reported Feb 14 2:58 AM — Mar 1 2:58 AM, Dayton, Weather by CustomWeather, © 2015

Note: Actual official high and low records may vary slightly from our data, if they occured in-between our weather recording intervals... More about our weather records

Advertising

Dayton weather history for previous 24 hours

 ConditionsComfort  
Time TempWeatherWind HumidityBarometerVisibility
2:58 AM
Sun, Mar 1
24 °FLight snow. Ice fog.5 mph91%30.43 "Hg1 mi
1:58 AM23 °FLight snow. Ice fog.5 mph92%30.49 "Hg1 mi
12:58 AM23 °FLight snow. Ice fog.2 mph86%30.52 "Hg1 mi
11:58 PM
Sat, Feb 28
21 °FLight snow. Ice fog.5 mph86%30.55 "Hg2 mi
10:58 PM22 °FLight snow. Overcast.5 mph79%30.58 "Hg2 mi
9:58 PM24 °FMostly cloudy.3 mph52%30.58 "Hg10 mi
8:58 PM23 °FMostly cloudy.5 mph52%30.58 "Hg10 mi
7:58 PM22 °FOvercast.5 mph50%30.60 "Hg10 mi
6:58 PM22 °FOvercast.5 mph48%30.62 "Hg10 mi
5:58 PM23 °FMostly cloudy.8 mph48%30.65 "Hg10 mi
4:58 PM25 °FPartly sunny.8 mph44%30.65 "Hg10 mi
3:58 PM25 °FPassing clouds.10 mph42%30.66 "Hg10 mi
2:58 PM25 °FScattered clouds.6 mph39%30.69 "Hg10 mi
1:58 PM23 °FScattered clouds.7 mph40%30.72 "Hg10 mi
12:58 PM21 °FPartly sunny.7 mph42%30.76 "Hg10 mi
11:58 AM19 °FOvercast.6 mph43%30.78 "Hg10 mi
10:58 AM17 °FOvercast.8 mph43%30.80 "Hg10 mi
9:58 AM15 °FOvercast.8 mph48%30.80 "Hg10 mi
8:58 AM10 °FMostly cloudy.3 mph61%30.80 "Hg10 mi
7:58 AM6 °FOvercast.2 mph71%30.80 "Hg10 mi
6:58 AM5 °FMostly cloudy.1 mph80%30.77 "Hg10 mi
5:58 AM2 °FOvercast.No wind79%30.76 "Hg10 mi
4:58 AM4 °FClear.No wind76%30.75 "Hg10 mi
Weather by CustomWeather, © 2015

See weather overviewHow to use our weather pages